This is the latest recevied weather packets stored in our database for station/object DL4JCP-6. If no packets are shown the sender has not sent any weather packets the latest 10 day(s).
| Time | Temp. | Humidity | Pressure | Rain* | Wind** | Luminosity | Snow |
|---|---|---|---|---|---|---|---|
| 1777567145 | 12.78° C | 49% | 1029.3 hPa | 0 mm | - | - | - |
| 1777566845 | 12.78° C | 47% | 1029.2 hPa | 0 mm | - | - | - |
| 1777566796 | 12.78° C | 47% | 1029.2 hPa | 0 mm | - | - | - |
| 1777566545 | 13.33° C | 48% | 1029.5 hPa | 0 mm | - | - | - |
| 1777566245 | 13.33° C | 47% | 1029.4 hPa | 0 mm | - | - | - |
| 1777565944 | 13.33° C | 48% | 1029.6 hPa | 0 mm | - | - | - |
| 1777565893 | 13.33° C | 48% | 1029.6 hPa | 0 mm | - | - | - |
| 1777565644 | 13.33° C | 46% | 1029.5 hPa | 0 mm | - | - | - |
| 1777565345 | 13.33° C | 46% | 1029.5 hPa | 0 mm | - | - | - |
| 1777565044 | 13.33° C | 45% | 1029.5 hPa | 0 mm | - | - | - |
| 1777564994 | 13.33° C | 45% | 1029.5 hPa | 0 mm | - | - | - |
| 1777564744 | 13.89° C | 43% | 1029.6 hPa | 0 mm | - | - | - |
| 1777564444 | 13.89° C | 40% | 1029.5 hPa | 0 mm | - | - | - |
| 1777564144 | 13.89° C | 39% | 1029.5 hPa | 0 mm | - | - | - |
| 1777564093 | 13.89° C | 39% | 1029.5 hPa | 0 mm | - | - | - |
| 1777563844 | 13.89° C | 41% | 1029.5 hPa | 0 mm | - | - | - |
| 1777563544 | 13.89° C | 40% | 1029.4 hPa | 0 mm | - | - | - |
| 1777563245 | 14.44° C | 42% | 1029.7 hPa | 0 mm | - | - | - |
| 1777563193 | 14.44° C | 42% | 1029.7 hPa | 0 mm | - | - | - |
| 1777562946 | 13.89° C | 44% | 1029.4 hPa | 0 mm | - | - | - |
| 1777562645 | 13.89° C | 45% | 1029.5 hPa | 0 mm | - | - | - |
| 1777562345 | 13.89° C | 43% | 1029.4 hPa | 0 mm | - | - | - |
| 1777562293 | 13.89° C | 43% | 1029.4 hPa | 0 mm | - | - | - |
| 1777562045 | 13.89° C | 43% | 1029.5 hPa | 0 mm | - | - | - |
| 1777561745 | 14.44° C | 43% | 1029.6 hPa | 0 mm | - | - | - |
* Rain latest hour (hover to see other rain measurements)
** Current wind speed in m/s (hover to see current wind gust speed)